Regional Weather Roundup
Issued by NWS

Home | Current Version | Previous Version | Graphics & Text | Print | Product List | Glossary On
Versions: 1 2 3 4 5 6 7 8 9 10 11 12 13 14 15 16 17 18 19 20 21 22 23 24 25 26 27 28 29 30 31 32 33 34 35 36 37 38 39 40 41 42 43 44 45 46 47 48 49 50
000
ASUS43 KDMX 261807
RWRIA

WEATHER ROUNDUP FOR IOWA
NATIONAL WEATHER SERVICE DES MOINES IA
1200 PM CST WED NOV 26 2014

NOTE: "FAIR" INDICATES FEW OR NO CLOUDS BELOW 12,000 FEET WITH NO
SIGNIFICANT WEATHER AND/OR OBSTRUCTIONS TO VISIBILITY.

* - THESE STATIONS ARE NOT NWS STATIONS...THUS NOT UNDER NWS
QUALITY CONTROL.  THEY ALSO DO NOT REPORT WEATHER SUCH
AS PRECIPITATION OR FOG.

IAZ001>003-012>014-020>022-031>034-043>046-261900-
   NORTHWEST IOWA

CITY           SKY/WX    TMP DP  RH WIND       PRES   REMARKS
CARROLL *      MIX PCPN  27  27 100 N18G24    30.03R WCI  13
CHEROKEE *     LGT SNOW  26  24  93 N14G22    30.11R WCI  14
DENISON *      CLOUDY    28  27  93 N14G24    30.04R WCI  17
LE MARS *      LGT SNOW  25  21  86 N22G30    30.17S WCI  10
ORANGE CITY *  LGT SNOW  27  21  80 N12G20    30.15R WCI  16
SHELDON *      CLOUDY    23  19  86 N21G30    30.14R WCI   8
SIOUX CITY     CLOUDY    28  21  75 N22G32    30.16R WCI  14
6HR MIN TEMP:  28; 6HR MAX TEMP:  36; 6HR PCP:  0.01;

SPENCER        LGT SNOW  25  21  85 N21       30.11R VSB 1   WCI  11
6HR MIN TEMP:  25; 6HR MAX TEMP:  28; 6HR PCP: TRACE;

STORM LAKE *   MIX PCPN  27  23  86 N21G31    30.07R VSB 3/4 WCI  13
$$

IAZ055>058-069>071-079>083-090>094-261900-
   SOUTHWEST IOWA

CITY           SKY/WX    TMP DP  RH WIND       PRES   REMARKS
ATLANTIC *     MIX PCPN  30  30 100 N20G29    30.01R WCI  18
AUDUBON *      PTSUNNY   28  25  86 N14       30.02R HAZE    WCI  17
CLARINDA *     CLOUDY    36  32  87 N17G30    30.01R WCI  25
COUNCIL BLFS * CLOUDY    30  30 100 NW24G36   30.03R WCI  16
CRESTON *      CLOUDY    30  30 100 N15       29.95R FOG     WCI  19
HARLAN  *      CLOUDY    30  30 100 N20G25    30.07R WCI  18
LAMONI         CLOUDY    33  31  92 NW22      29.90R WCI  21
6HR MIN TEMP:  31; 6HR MAX TEMP:  35;

RED OAK *      CLOUDY    34  30  86 NW22G31   30.01R WCI  22
SHENANDOAH *   CLOUDY    34  30  86 NW17G32   30.03R WCI  23
$$

IAZ047>049-059>061-072>074-084-261900-
   CENTRAL IOWA

CITY           SKY/WX    TMP DP  RH WIND       PRES   REMARKS
AMES           LGT SNOW  30  26  85 NE13      29.99R FOG     WCI  20
6HR MIN TEMP:  26; 6HR MAX TEMP:  30; 6HR PCP:  0.07;

ANKENY *       LGT SNOW  30  28  93 NE9       29.97S WCI  22
CHARITON *     MIX PCPN  32  30  93 E7        29.91R WCI  26
DES MOINES     LGT SNOW  31  27  85 NE8       29.96R FOG     WCI  23
6HR MIN TEMP:  29; 6HR MAX TEMP:  31; 6HR PCP:  0.04;

GRINNELL*      SNOW      30  28  93 E15       29.96F VSB 1/2 WCI  19
KNOXVILLE *    CLOUDY    30  28  93 E8        29.92S FOG     WCI  23
MARSHALLTOWN   LGT SNOW  29  25  85 E15       29.99R FOG     WCI  18
6HR MIN TEMP:  26; 6HR MAX TEMP:  29; 6HR PCP: TRACE;

PELLA *        LGT SNOW  32  29  90 E9        29.96S WCI  24
PERRY *        FLURRIES  30  28  93 N9        30.00R WCI  22
$$

IAZ004>006-015-016-023>025-035-036-261900-
   NORTH CENTRAL IOWA

CITY           SKY/WX    TMP DP  RH WIND       PRES   REMARKS
ALGONA *       RAIN      27  27 100 NE17      30.07S WCI  14
CLARION *      SNOW      27  27 100 NE8       30.05R VSB 1/2 WCI  18
ESTHERVILLE    LGT SNOW  23  20  88 N20       30.10S FOG     WCI   8
6HR MIN TEMP:  23; 6HR MAX TEMP:  26; 6HR PCP:  0.04;

FORT DODGE *   CLOUDY    27  21  80 N10G17    30.05S VSB 1   WCI  17
MASON CITY     CLOUDY    29  23  78 NE8       30.07R WCI  21
6HR MIN TEMP:  24; 6HR MAX TEMP:  29; 6HR PCP: TRACE;

FOREST CITY *  LGT SNOW  28  28 100 N8        30.07R WCI  20
IOWA FALLS *   FLURRIES  30  23  74 NE9       30.03R WCI  22
$$

IAZ007>011-017>019-026>030-037>042-050>054-066-261900-
   NORTHEAST IOWA

CITY           SKY/WX    TMP DP  RH WIND       PRES   REMARKS
CEDAR RAPIDS   CLOUDY    28  25  88 E15       30.00F WCI  16
6HR MIN TEMP:  22; 6HR MAX TEMP:  28;

CHARLES CITY * PTSUNNY   28  25  86 NE8       30.06S WCI  20
CLINTON *      CLOUDY    27  21  80 E15       30.09F WCI  15
DECORAH *      SUNNY     27  21  80 E6        30.07S WCI  20
DUBUQUE        CLOUDY    23  21  92 E9        30.06S FOG     WCI  13
6HR MIN TEMP:  18; 6HR MAX TEMP:  23;

MONTICELLO *   CLOUDY    28  25  86 E9        30.05F WCI  20
OELWEIN *      SUNNY     30  25  80 E12       30.04F WCI  21
WATERLOO       CLOUDY    30  24  78 E12       30.04S WCI  20
6HR MIN TEMP:  24; 6HR MAX TEMP:  30;

$$

IAZ064-065-067-068-078-261900-
   EAST CENTRAL IOWA

CITY           SKY/WX    TMP DP  RH WIND       PRES   REMARKS
DAVENPORT        N/A     26  21  81 E10       30.06S WCI  16
6HR MIN TEMP:  19; 6HR MAX TEMP:  26;

IOWA CITY      CLOUDY    28  24  85 E10       30.04F WCI  19
6HR MIN TEMP:  23; 6HR MAX TEMP:  28;

MT. PLEASANT * LGT SNOW  31  28  86 E13       29.98F WCI  21
MUSCATINE *    CLOUDY    32  27  80 E14       30.04F WCI  22
QUAD CITIES    CLOUDY    28  23  81 E15       30.06F WCI  16
6HR MIN TEMP:  18; 6HR MAX TEMP:  28;

$$

IAZ062-063-075>077-085>089-095>099-261900-
   SOUTHEAST IOWA

CITY           SKY/WX    TMP DP  RH WIND       PRES   REMARKS
BURLINGTON     CLOUDY    32  28  85 E13       29.99F WCI  22
6HR MIN TEMP:  26; 6HR MAX TEMP:  32;

FAIRFIELD *    LGT SNOW  30  28  93 E12       29.96S WCI  21
FORT MADISON * SNOW      34  30  86 E9        29.97F VSB 1/4 WCI  26
KEOKUK *       LGT SNOW  32  30  93 SE9       29.96F WCI  24
OSKALOOSA *    LGT SNOW  31  29  92 E15       29.95F WCI  20
CENTERVILLE *  MIX PCPN  32  32 100 E6        29.91S WCI  26
OTTUMWA        LGT SNOW  31  28  89 E16       29.94S FOG     WCI  20
6HR MIN TEMP:  29; 6HR MAX TEMP:  31; 6HR PCP:  0.02;

WASHINGTON *   MIX PCPN  30  30 100 E14       29.99F WCI  20
$$

ABBREVIATIONS USED IN REMARKS
   TC - TEMPERATURES IN CELSIUS
  WCI - WIND CHILL INDEX
   HX - HEAT INDEX
  VSB - VISIBILITY
$$




USA.gov is the U.S. government's official web portal to all federal, state and local government web resources and services.